Time,TemperatureF,DewpointF,PressureIn,WindDirection,WindDirectionDegrees,WindSpeedMPH,WindSpeedGustMPH,Humidity,HourlyPrecipIn,Conditions,Clouds,dailyrainin,SoftwareType,DateUTC
2013-03-30 00:00:00,50.9,30.3,30.22,West,281,1.0,1.0,45,0.00,,,0.00,Wunderground v.1.15,2013-03-30 04:00:00,
2013-03-30 00:03:00,50.8,30.2,30.22,West,281,0.0,2.0,45,0.00,,,0.00,Wunderground v.1.15,2013-03-30 04:03:00,
2013-03-30 00:04:00,50.8,30.2,30.22,WNW,289,1.0,2.0,45,0.00,,,0.00,Wunderground v.1.15,2013-03-30 04:04:00,
2013-03-30 00:09:00,50.8,30.2,30.22,WNW,289,1.0,2.0,45,0.00,,,0.00,Wunderground v.1.15,2013-03-30 04:09:00,
2013-03-30 00:11:00,50.7,30.1,30.22,WNW,289,1.0,1.0,45,0.00,,,0.00,Wunderground v.1.15,2013-03-30 04:11:00,
2013-03-30 00:16:00,50.6,30.0,30.22,WNW,289,0.0,1.0,45,0.00,,,0.00,Wunderground v.1.15,2013-03-30 04:16:00,
2013-03-30 00:22:00,50.5,30.5,30.22,WNW,288,0.0,0.0,46,0.00,,,0.00,Wunderground v.1.15,2013-03-30 04:22:00,
2013-03-30 00:27:00,50.5,30.5,30.22,WNW,288,0.0,1.0,46,0.00,,,0.00,Wunderground v.1.15,2013-03-30 04:27:00,
2013-03-30 00:32:00,50.5,30.5,30.22,WNW,288,0.0,1.0,46,0.00,,,0.00,Wunderground v.1.15,2013-03-30 04:32:00,
2013-03-30 00:37:00,50.5,31.0,30.22,WNW,288,1.0,2.0,47,0.00,,,0.00,Wunderground v.1.15,2013-03-30 04:37:00,
2013-03-30 00:42:00,50.3,30.8,30.21,WNW,288,1.0,1.0,47,0.00,,,0.00,Wunderground v.1.15,2013-03-30 04:42:00,
2013-03-30 00:48:00,49.9,31.5,30.21,WNW,288,0.0,1.0,49,0.00,,,0.00,Wunderground v.1.15,2013-03-30 04:48:00,
2013-03-30 00:53:00,49.7,30.8,30.21,WNW,288,0.0,1.0,48,0.00,,,0.00,Wunderground v.1.15,2013-03-30 04:53:00,
2013-03-30 00:59:00,49.9,30.5,30.21,WNW,289,1.0,2.0,47,0.00,,,0.00,Wunderground v.1.15,2013-03-30 04:59:00,
2013-03-30 01:04:00,50.0,31.1,30.21,WNW,288,1.0,1.0,48,0.00,,,0.00,Wunderground v.1.15,2013-03-30 05:04:00,
2013-03-30 01:10:00,50.1,32.2,30.21,WNW,289,0.0,1.0,50,0.00,,,0.00,Wunderground v.1.15,2013-03-30 05:10:00,
2013-03-30 01:16:00,49.7,32.3,30.21,WNW,289,0.0,1.0,51,0.00,,,0.00,Wunderground v.1.15,2013-03-30 05:16:00,
2013-03-30 01:21:00,49.7,31.8,30.21,WNW,289,0.0,0.0,50,0.00,,,0.00,Wunderground v.1.15,2013-03-30 05:21:00,
2013-03-30 01:26:00,50.1,32.2,30.21,NNE,28,1.0,4.0,50,0.00,,,0.00,Wunderground v.1.15,2013-03-30 05:26:00,
2013-03-30 01:32:00,50.4,31.9,30.21,NE,34,2.0,3.0,49,0.00,,,0.00,Wunderground v.1.15,2013-03-30 05:32:00,
2013-03-30 01:38:00,50.3,32.4,30.20,NNE,32,2.0,3.0,50,0.00,,,0.00,Wunderground v.1.15,2013-03-30 05:38:00,
2013-03-30 01:43:00,50.2,31.8,30.20,North,5,1.0,3.0,49,0.00,,,0.00,Wunderground v.1.15,2013-03-30 05:43:00,
2013-03-30 01:48:00,50.2,31.8,30.21,North,5,0.0,3.0,49,0.00,,,0.00,Wunderground v.1.15,2013-03-30 05:48:00,
2013-03-30 01:54:00,50.1,31.7,30.20,North,5,0.0,1.0,49,0.00,,,0.00,Wunderground v.1.15,2013-03-30 05:54:00,
2013-03-30 02:00:00,49.9,31.5,30.20,North,5,0.0,0.0,49,0.00,,,0.00,Wunderground v.1.15,2013-03-30 06:00:00,
2013-03-30 02:06:00,49.6,33.6,30.20,North,5,0.0,0.0,54,0.00,,,0.00,Wunderground v.1.15,2013-03-30 06:06:00,
2013-03-30 02:11:00,49.4,30.5,30.20,North,9,0.0,0.0,48,0.00,,,0.00,Wunderground v.1.15,2013-03-30 06:11:00,
2013-03-30 02:16:00,49.6,30.7,30.20,North,9,0.0,2.0,48,0.00,,,0.00,Wunderground v.1.15,2013-03-30 06:16:00,
2013-03-30 02:22:00,50.0,30.5,30.20,North,9,1.0,1.0,47,0.00,,,0.00,Wunderground v.1.15,2013-03-30 06:22:00,
2013-03-30 02:28:00,50.1,32.2,30.20,North,9,1.0,3.0,50,0.00,,,0.00,Wunderground v.1.15,2013-03-30 06:28:00,
2013-03-30 02:33:00,49.6,30.7,30.20,NNW,342,2.0,4.0,48,0.00,,,0.00,Wunderground v.1.15,2013-03-30 06:33:00,
2013-03-30 02:39:00,49.8,30.9,30.20,NW,325,2.0,4.0,48,0.00,,,0.00,Wunderground v.1.15,2013-03-30 06:39:00,
2013-03-30 02:45:00,49.8,30.4,30.19,NW,324,1.0,2.0,47,0.00,,,0.00,Wunderground v.1.15,2013-03-30 06:45:00,
2013-03-30 02:51:00,49.1,30.7,30.19,NW,324,1.0,1.0,49,0.00,,,0.00,Wunderground v.1.15,2013-03-30 06:51:00,
2013-03-30 02:56:00,48.8,30.0,30.19,NW,324,0.0,1.0,48,0.00,,,0.00,Wunderground v.1.15,2013-03-30 06:56:00,
2013-03-30 03:02:00,48.4,29.6,30.19,NW,324,0.0,0.0,48,0.00,,,0.00,Wunderground v.1.15,2013-03-30 07:02:00,
2013-03-30 03:07:00,48.1,29.8,30.19,NW,324,0.0,0.0,49,0.00,,,0.00,Wunderground v.1.15,2013-03-30 07:07:00,
2013-03-30 03:13:00,47.4,29.2,30.19,NW,324,0.0,0.0,49,0.00,,,0.00,Wunderground v.1.15,2013-03-30 07:13:00,
2013-03-30 03:19:00,46.8,28.6,30.19,NW,324,0.0,0.0,49,0.00,,,0.00,Wunderground v.1.15,2013-03-30 07:19:00,
2013-03-30 03:25:00,46.3,30.5,30.19,NW,324,0.0,0.0,54,0.00,,,0.00,Wunderground v.1.15,2013-03-30 07:25:00,
2013-03-30 03:30:00,45.4,30.2,30.19,NW,324,0.0,1.0,55,0.00,,,0.00,Wunderground v.1.15,2013-03-30 07:30:00,
2013-03-30 03:35:00,45.0,30.7,30.19,NW,324,0.0,1.0,57,0.00,,,0.00,Wunderground v.1.15,2013-03-30 07:35:00,
2013-03-30 03:40:00,44.5,30.6,30.19,NW,324,0.0,0.0,58,0.00,,,0.00,Wunderground v.1.15,2013-03-30 07:40:00,
2013-03-30 03:45:00,44.0,29.7,30.20,NW,324,0.0,0.0,57,0.00,,,0.00,Wunderground v.1.15,2013-03-30 07:45:00,
2013-03-30 03:50:00,43.8,29.5,30.20,NW,324,0.0,0.0,57,0.00,,,0.00,Wunderground v.1.15,2013-03-30 07:50:00,
2013-03-30 03:56:00,43.7,30.7,30.20,NW,324,0.0,1.0,60,0.00,,,0.00,Wunderground v.1.15,2013-03-30 07:56:00,
2013-03-30 04:02:00,43.2,32.2,30.20,NW,324,0.0,0.0,65,0.00,,,0.00,Wunderground v.1.15,2013-03-30 08:02:00,
2013-03-30 04:07:00,42.9,30.8,30.20,NW,324,0.0,0.0,62,0.00,,,0.00,Wunderground v.1.15,2013-03-30 08:07:00,
2013-03-30 04:12:00,43.0,30.9,30.20,NW,324,0.0,2.0,62,0.00,,,0.00,Wunderground v.1.15,2013-03-30 08:12:00,
2013-03-30 04:17:00,43.5,30.5,30.20,NW,324,1.0,2.0,60,0.00,,,0.00,Wunderground v.1.15,2013-03-30 08:17:00,
2013-03-30 04:22:00,43.7,30.7,30.20,NW,324,2.0,2.0,60,0.00,,,0.00,Wunderground v.1.15,2013-03-30 08:22:00,
2013-03-30 04:28:00,44.0,31.4,30.19,NW,324,0.0,2.0,61,0.00,,,0.00,Wunderground v.1.15,2013-03-30 08:28:00,
2013-03-30 04:34:00,43.6,31.4,30.19,NW,324,0.0,1.0,62,0.00,,,0.00,Wunderground v.1.15,2013-03-30 08:34:00,
2013-03-30 04:39:00,43.6,30.2,30.19,NW,324,1.0,2.0,59,0.00,,,0.00,Wunderground v.1.15,2013-03-30 08:39:00,
2013-03-30 04:45:00,43.8,33.2,30.19,NW,324,1.0,1.0,66,0.00,,,0.00,Wunderground v.1.15,2013-03-30 08:45:00,
2013-03-30 04:50:00,43.4,31.6,30.19,NW,324,0.0,0.0,63,0.00,,,0.00,Wunderground v.1.15,2013-03-30 08:50:00,
2013-03-30 04:55:00,43.4,30.8,30.19,NW,324,0.0,0.0,61,0.00,,,0.00,Wunderground v.1.15,2013-03-30 08:55:00,
2013-03-30 05:00:00,43.3,31.9,30.19,NW,324,0.0,0.0,64,0.00,,,0.00,Wunderground v.1.15,2013-03-30 09:00:00,
2013-03-30 05:07:00,43.2,32.2,30.19,NW,324,0.0,0.0,65,0.00,,,0.00,Wunderground v.1.15,2013-03-30 09:07:00,
2013-03-30 05:13:00,43.0,32.4,30.19,NW,324,0.0,0.0,66,0.00,,,0.00,Wunderground v.1.15,2013-03-30 09:13:00,
2013-03-30 05:19:00,42.8,31.5,30.19,NW,324,0.0,0.0,64,0.00,,,0.00,Wunderground v.1.15,2013-03-30 09:19:00,
2013-03-30 05:24:00,42.7,30.6,30.19,NW,324,0.0,0.0,62,0.00,,,0.00,Wunderground v.1.15,2013-03-30 09:24:00,
2013-03-30 05:30:00,42.9,29.5,30.20,NW,324,0.0,0.0,59,0.00,,,0.00,Wunderground v.1.15,2013-03-30 09:30:00,
2013-03-30 05:34:00,43.1,32.5,30.20,NW,324,0.0,0.0,66,0.00,,,0.00,Wunderground v.1.15,2013-03-30 09:34:00,
2013-03-30 05:39:00,43.1,31.0,30.20,NW,324,0.0,0.0,62,0.00,,,0.00,Wunderground v.1.15,2013-03-30 09:39:00,
2013-03-30 05:44:00,43.1,32.5,30.20,NW,324,0.0,0.0,66,0.00,,,0.00,Wunderground v.1.15,2013-03-30 09:44:00,
2013-03-30 05:50:00,43.2,29.0,30.20,NW,324,0.0,0.0,57,0.00,,,0.00,Wunderground v.1.15,2013-03-30 09:50:00,
2013-03-30 05:56:00,43.6,31.4,30.20,NW,324,0.0,0.0,62,0.00,,,0.00,Wunderground v.1.15,2013-03-30 09:56:00,
2013-03-30 06:01:00,43.4,28.7,30.20,NW,324,0.0,0.0,56,0.00,,,0.00,Wunderground v.1.15,2013-03-30 10:01:00,
2013-03-30 06:06:00,43.5,28.8,30.20,NW,324,0.0,0.0,56,0.00,,,0.00,Wunderground v.1.15,2013-03-30 10:06:00,
2013-03-30 06:12:00,43.5,28.4,30.21,NW,324,0.0,0.0,55,0.00,,,0.00,Wunderground v.1.15,2013-03-30 10:12:00,
2013-03-30 06:17:00,43.5,28.4,30.21,NW,324,0.0,0.0,55,0.00,,,0.00,Wunderground v.1.15,2013-03-30 10:17:00,
2013-03-30 06:23:00,43.3,28.6,30.21,NW,324,0.0,0.0,56,0.00,,,0.00,Wunderground v.1.15,2013-03-30 10:23:00,
2013-03-30 06:28:00,43.1,29.7,30.21,NW,324,0.0,0.0,59,0.00,,,0.00,Wunderground v.1.15,2013-03-30 10:28:00,
2013-03-30 06:34:00,42.7,29.4,30.21,NW,324,0.0,0.0,59,0.00,,,0.00,Wunderground v.1.15,2013-03-30 10:34:00,
2013-03-30 06:40:00,42.4,29.1,30.22,NW,324,0.0,0.0,59,0.00,,,0.00,Wunderground v.1.15,2013-03-30 10:40:00,
2013-03-30 06:45:00,42.3,29.0,30.22,NW,324,0.0,0.0,59,0.00,,,0.00,Wunderground v.1.15,2013-03-30 10:45:00,
2013-03-30 06:51:00,42.1,28.4,30.22,NW,324,0.0,0.0,58,0.00,,,0.00,Wunderground v.1.15,2013-03-30 10:51:00,
2013-03-30 06:57:00,42.0,29.1,30.22,NW,324,0.0,0.0,60,0.00,,,0.00,Wunderground v.1.15,2013-03-30 10:57:00,
2013-03-30 07:02:00,42.1,28.8,30.23,NW,324,0.0,0.0,59,0.00,,,0.00,Wunderground v.1.15,2013-03-30 11:02:00,
2013-03-30 07:08:00,42.1,30.4,30.23,NW,324,0.0,1.0,63,0.00,,,0.00,Wunderground v.1.15,2013-03-30 11:08:00,
2013-03-30 07:13:00,42.0,29.9,30.23,NW,324,0.0,0.0,62,0.00,,,0.00,Wunderground v.1.15,2013-03-30 11:13:00,
2013-03-30 07:19:00,41.9,31.0,30.23,NW,324,0.0,1.0,65,0.00,,,0.00,Wunderground v.1.15,2013-03-30 11:19:00,
2013-03-30 07:25:00,41.5,30.2,30.23,NW,324,0.0,1.0,64,0.00,,,0.00,Wunderground v.1.15,2013-03-30 11:25:00,
2013-03-30 07:30:00,42.3,29.8,30.23,NW,324,1.0,1.0,61,0.00,,,0.00,Wunderground v.1.15,2013-03-30 11:30:00,
2013-03-30 07:36:00,42.4,30.3,30.23,NW,324,2.0,3.0,62,0.00,,,0.00,Wunderground v.1.15,2013-03-30 11:36:00,
2013-03-30 07:42:00,42.7,29.8,30.23,NW,324,1.0,2.0,60,0.00,,,0.00,Wunderground v.1.15,2013-03-30 11:42:00,
2013-03-30 07:48:00,43.2,32.2,30.23,NW,324,1.0,2.0,65,0.00,,,0.00,Wunderground v.1.15,2013-03-30 11:48:00,
2013-03-30 07:54:00,42.8,31.8,30.23,NW,324,0.0,0.0,65,0.00,,,0.00,Wunderground v.1.15,2013-03-30 11:54:00,
2013-03-30 07:59:00,43.4,30.0,30.23,NW,324,0.0,2.0,59,0.00,,,0.00,Wunderground v.1.15,2013-03-30 11:59:00,
2013-03-30 08:05:00,44.2,29.5,30.24,NW,324,1.0,2.0,56,0.00,,,0.00,Wunderground v.1.15,2013-03-30 12:05:00,
2013-03-30 08:11:00,44.6,30.7,30.24,NW,324,2.0,2.0,58,0.00,,,0.00,Wunderground v.1.15,2013-03-30 12:11:00,
2013-03-30 08:17:00,44.7,30.0,30.24,NW,324,2.0,2.0,56,0.00,,,0.00,Wunderground v.1.15,2013-03-30 12:17:00,
2013-03-30 08:22:00,45.1,31.2,30.24,NW,324,2.0,3.0,58,0.00,,,0.00,Wunderground v.1.15,2013-03-30 12:22:00,
2013-03-30 08:27:00,45.5,29.3,30.24,North,360,3.0,3.0,53,0.00,,,0.00,Wunderground v.1.15,2013-03-30 12:27:00,
2013-03-30 08:32:00,46.1,30.4,30.24,North,360,3.0,4.0,54,0.00,,,0.00,Wunderground v.1.15,2013-03-30 12:32:00,
2013-03-30 08:38:00,46.4,31.1,30.24,North,360,3.0,4.0,55,0.00,,,0.00,Wunderground v.1.15,2013-03-30 12:38:00,
2013-03-30 08:44:00,46.4,31.5,30.24,North,9,3.0,4.0,56,0.00,,,0.00,Wunderground v.1.15,2013-03-30 12:44:00,
2013-03-30 08:49:00,46.3,31.0,30.24,North,9,3.0,4.0,55,0.00,,,0.00,Wunderground v.1.15,2013-03-30 12:49:00,
2013-03-30 08:54:00,47.0,31.7,30.25,North,9,3.0,4.0,55,0.00,,,0.00,Wunderground v.1.15,2013-03-30 12:54:00,
2013-03-30 09:00:00,47.9,31.6,30.24,North,5,3.0,4.0,53,0.00,,,0.00,Wunderground v.1.15,2013-03-30 13:00:00,
2013-03-30 09:06:00,48.9,31.5,30.25,North,5,3.0,4.0,51,0.00,,,0.00,Wunderground v.1.15,2013-03-30 13:06:00,
2013-03-30 09:12:00,50.0,31.6,30.25,North,5,3.0,4.0,49,0.00,,,0.00,Wunderground v.1.15,2013-03-30 13:12:00,
2013-03-30 09:17:00,50.7,32.7,30.25,NNE,13,3.0,4.0,50,0.00,,,0.00,Wunderground v.1.15,2013-03-30 13:17:00,
2013-03-30 09:23:00,51.5,32.4,30.25,NNE,30,3.0,3.0,48,0.00,,,0.00,Wunderground v.1.15,2013-03-30 13:23:00,
2013-03-30 09:29:00,52.3,32.1,30.25,NNE,30,2.0,3.0,46,0.00,,,0.00,Wunderground v.1.15,2013-03-30 13:29:00,
2013-03-30 09:35:00,53.4,32.6,30.25,NNE,30,0.0,2.0,45,0.00,,,0.00,Wunderground v.1.15,2013-03-30 13:35:00,
2013-03-30 09:40:00,54.0,32.6,30.25,NNE,30,0.0,0.0,44,0.00,,,0.00,Wunderground v.1.15,2013-03-30 13:40:00,
2013-03-30 09:45:00,54.1,34.3,30.25,NNE,30,0.0,2.0,47,0.00,,,0.00,Wunderground v.1.15,2013-03-30 13:45:00,
2013-03-30 09:51:00,54.2,34.4,30.25,WSW,244,1.0,1.0,47,0.00,,,0.00,Wunderground v.1.15,2013-03-30 13:51:00,
2013-03-30 09:57:00,54.0,34.7,30.24,SW,232,2.0,4.0,48,0.00,,,0.00,Wunderground v.1.15,2013-03-30 13:57:00,
2013-03-30 10:02:00,54.0,35.8,30.24,SSW,210,3.0,4.0,50,0.00,,,0.00,Wunderground v.1.15,2013-03-30 14:02:00,
2013-03-30 10:08:00,54.4,34.6,30.24,SSW,209,2.0,4.0,47,0.00,,,0.00,Wunderground v.1.15,2013-03-30 14:08:00,
2013-03-30 10:13:00,54.9,36.1,30.24,SSW,209,1.0,1.0,49,0.00,,,0.00,Wunderground v.1.15,2013-03-30 14:13:00,
2013-03-30 10:19:00,55.7,35.8,30.24,SSE,163,0.0,1.0,47,0.00,,,0.00,Wunderground v.1.15,2013-03-30 14:19:00,
2013-03-30 10:25:00,56.6,32.5,30.24,ENE,67,2.0,4.0,40,0.00,,,0.00,Wunderground v.1.15,2013-03-30 14:25:00,
2013-03-30 10:30:00,56.9,32.8,30.24,ENE,73,2.0,2.0,40,0.00,,,0.00,Wunderground v.1.15,2013-03-30 14:30:00,
2013-03-30 10:36:00,57.2,34.3,30.24,SE,144,2.0,5.0,42,0.00,,,0.00,Wunderground v.1.15,2013-03-30 14:36:00,
2013-03-30 10:41:00,57.2,31.1,30.24,ENE,71,3.0,6.0,37,0.00,,,0.00,Wunderground v.1.15,2013-03-30 14:41:00,
2013-03-30 10:47:00,57.3,31.2,30.23,East,100,4.0,6.0,37,0.00,,,0.00,Wunderground v.1.15,2013-03-30 14:47:00,
2013-03-30 10:52:00,57.6,30.8,30.23,ENE,65,3.0,5.0,36,0.00,,,0.00,Wunderground v.1.15,2013-03-30 14:52:00,
2013-03-30 10:58:00,57.9,30.4,30.23,ENE,74,2.0,6.0,35,0.00,,,0.00,Wunderground v.1.15,2013-03-30 14:58:00,
2013-03-30 11:04:00,58.4,30.8,30.23,SE,143,2.0,8.0,35,0.00,,,0.00,Wunderground v.1.15,2013-03-30 15:04:00,
2013-03-30 11:09:00,58.6,29.6,30.23,ENE,57,3.0,8.0,33,0.00,,,0.00,Wunderground v.1.15,2013-03-30 15:09:00,
2013-03-30 11:15:00,59.2,31.5,30.23,SSE,158,2.0,5.0,35,0.00,,,0.00,Wunderground v.1.15,2013-03-30 15:15:00,
2013-03-30 11:20:00,59.9,30.7,30.22,NE,43,1.0,1.0,33,0.00,,,0.00,Wunderground v.1.15,2013-03-30 15:20:00,
2013-03-30 11:26:00,60.1,33.7,30.22,ENE,77,2.0,4.0,37,0.00,,,0.00,Wunderground v.1.15,2013-03-30 15:26:00,
2013-03-30 11:31:00,59.8,30.6,30.22,South,186,2.0,3.0,33,0.00,,,0.00,Wunderground v.1.15,2013-03-30 15:31:00,
2013-03-30 11:36:00,59.9,29.2,30.22,SE,132,3.0,5.0,31,0.00,,,0.00,Wunderground v.1.15,2013-03-30 15:36:00,
2013-03-30 11:41:00,59.9,29.9,30.22,SSW,209,3.0,4.0,32,0.00,,,0.00,Wunderground v.1.15,2013-03-30 15:41:00,
2013-03-30 11:47:00,59.6,30.4,30.22,NE,49,4.0,7.0,33,0.00,,,0.00,Wunderground v.1.15,2013-03-30 15:47:00,
2013-03-30 11:53:00,59.7,30.5,30.22,NE,53,3.0,4.0,33,0.00,,,0.00,Wunderground v.1.15,2013-03-30 15:53:00,
2013-03-30 11:58:00,59.8,29.1,30.21,NE,54,3.0,7.0,31,0.00,,,0.00,Wunderground v.1.15,2013-03-30 15:58:00,
2013-03-30 12:03:00,59.5,31.1,30.21,ENE,67,3.0,4.0,34,0.00,,,0.00,Wunderground v.1.15,2013-03-30 16:03:00,
2013-03-30 12:09:00,59.4,31.7,30.21,ENE,76,3.0,5.0,35,0.00,,,0.00,Wunderground v.1.15,2013-03-30 16:09:00,
2013-03-30 12:14:00,60.1,32.3,30.20,ESE,119,3.0,7.0,35,0.00,,,0.00,Wunderground v.1.15,2013-03-30 16:14:00,
2013-03-30 12:20:00,60.0,30.8,30.19,WSW,244,3.0,3.0,33,0.00,,,0.00,Wunderground v.1.15,2013-03-30 16:20:00,
2013-03-30 12:25:00,60.1,30.9,30.19,ENE,70,2.0,5.0,33,0.00,,,0.00,Wunderground v.1.15,2013-03-30 16:25:00,
2013-03-30 12:30:00,60.5,32.0,30.19,ENE,60,3.0,3.0,34,0.00,,,0.00,Wunderground v.1.15,2013-03-30 16:30:00,
2013-03-30 12:36:00,60.3,32.5,30.19,NNE,28,5.0,7.0,35,0.00,,,0.00,Wunderground v.1.15,2013-03-30 16:36:00,
2013-03-30 12:42:00,60.7,31.4,30.19,NNW,328,3.0,3.0,33,0.00,,,0.00,Wunderground v.1.15,2013-03-30 16:42:00,
2013-03-30 12:48:00,60.9,32.3,30.18,SSE,150,2.0,4.0,34,0.00,,,0.00,Wunderground v.1.15,2013-03-30 16:48:00,
2013-03-30 12:54:00,61.1,31.0,30.18,SW,223,2.0,5.0,32,0.00,,,0.00,Wunderground v.1.15,2013-03-30 16:54:00,
2013-03-30 12:59:00,61.1,31.8,30.18,SSE,157,4.0,10.0,33,0.00,,,0.00,Wunderground v.1.15,2013-03-30 16:59:00,
2013-03-30 13:05:00,61.1,31.8,30.17,SSW,192,5.0,7.0,33,0.00,,,0.00,Wunderground v.1.15,2013-03-30 17:05:00,
2013-03-30 13:11:00,62.0,32.5,30.17,SE,136,2.0,2.0,33,0.00,,,0.00,Wunderground v.1.15,2013-03-30 17:11:00,
2013-03-30 13:16:00,61.7,33.0,30.17,ENE,68,2.0,6.0,34,0.00,,,0.00,Wunderground v.1.15,2013-03-30 17:16:00,
2013-03-30 13:22:00,61.7,32.3,30.17,SSE,147,3.0,3.0,33,0.00,,,0.00,Wunderground v.1.15,2013-03-30 17:22:00,
2013-03-30 13:28:00,61.7,32.3,30.16,SSW,195,2.0,3.0,33,0.00,,,0.00,Wunderground v.1.15,2013-03-30 17:28:00,
2013-03-30 13:33:00,62.0,33.3,30.16,SE,138,2.0,7.0,34,0.00,,,0.00,Wunderground v.1.15,2013-03-30 17:33:00,
2013-03-30 13:39:00,62.2,32.7,30.16,South,171,2.0,7.0,33,0.00,,,0.00,Wunderground v.1.15,2013-03-30 17:39:00,
2013-03-30 13:45:00,62.5,32.2,30.16,WSW,241,2.0,6.0,32,0.00,,,0.00,Wunderground v.1.15,2013-03-30 17:45:00,
2013-03-30 13:50:00,62.6,33.8,30.16,SW,222,3.0,7.0,34,0.00,,,0.00,Wunderground v.1.15,2013-03-30 17:50:00,
2013-03-30 13:55:00,62.5,33.0,30.16,West,260,3.0,7.0,33,0.00,,,0.00,Wunderground v.1.15,2013-03-30 17:55:00,
2013-03-30 14:00:00,62.4,32.1,30.16,NE,35,3.0,5.0,32,0.00,,,0.00,Wunderground v.1.15,2013-03-30 18:00:00,
2013-03-30 14:06:00,62.5,33.7,30.15,North,9,4.0,5.0,34,0.00,,,0.00,Wunderground v.1.15,2013-03-30 18:06:00,
2013-03-30 14:11:00,62.7,32.4,30.15,North,9,2.0,3.0,32,0.00,,,0.00,Wunderground v.1.15,2013-03-30 18:11:00,
2013-03-30 14:16:00,63.7,35.5,30.14,ESE,108,1.0,4.0,35,0.00,,,0.00,Wunderground v.1.15,2013-03-30 18:16:00,
2013-03-30 14:22:00,64.7,34.9,30.14,SSE,155,3.0,4.0,33,0.00,,,0.00,Wunderground v.1.15,2013-03-30 18:22:00,
2013-03-30 14:28:00,64.4,34.6,30.13,SSW,196,5.0,9.0,33,0.00,,,0.00,Wunderground v.1.15,2013-03-30 18:28:00,
2013-03-30 14:33:00,64.1,32.8,30.14,NE,53,5.0,5.0,31,0.00,,,0.00,Wunderground v.1.15,2013-03-30 18:33:00,
2013-03-30 14:38:00,63.9,33.4,30.14,SE,133,3.0,6.0,32,0.00,,,0.00,Wunderground v.1.15,2013-03-30 18:38:00,
2013-03-30 14:44:00,64.3,35.3,30.13,SSW,194,4.0,9.0,34,0.00,,,0.00,Wunderground v.1.15,2013-03-30 18:44:00,
2013-03-30 14:49:00,64.1,32.8,30.13,SSE,161,4.0,9.0,31,0.00,,,0.00,Wunderground v.1.15,2013-03-30 18:49:00,
2013-03-30 14:55:00,63.8,33.4,30.12,North,360,3.0,4.0,32,0.00,,,0.00,Wunderground v.1.15,2013-03-30 18:55:00,
2013-03-30 15:00:00,64.0,35.0,30.12,North,5,2.0,2.0,34,0.00,,,0.00,Wunderground v.1.15,2013-03-30 19:00:00,
2013-03-30 15:06:00,64.6,34.8,30.12,WSW,241,2.0,6.0,33,0.00,,,0.00,Wunderground v.1.15,2013-03-30 19:06:00,
2013-03-30 15:11:00,64.3,35.3,30.12,WSW,240,4.0,7.0,34,0.00,,,0.00,Wunderground v.1.15,2013-03-30 19:11:00,
2013-03-30 15:17:00,64.1,35.1,30.12,SW,221,4.0,7.0,34,0.00,,,0.00,Wunderground v.1.15,2013-03-30 19:17:00,
2013-03-30 15:23:00,63.5,35.3,30.11,SSW,203,4.0,8.0,35,0.00,,,0.00,Wunderground v.1.15,2013-03-30 19:23:00,
2013-03-30 15:29:00,63.9,39.1,30.11,WSW,237,6.0,10.0,40,0.00,,,0.00,Wunderground v.1.15,2013-03-30 19:29:00,
2013-03-30 15:35:00,63.3,37.2,30.11,SSW,201,6.0,8.0,38,0.00,,,0.00,Wunderground v.1.15,2013-03-30 19:35:00,
2013-03-30 15:41:00,63.9,38.4,30.11,SSW,200,5.0,6.0,39,0.00,,,0.00,Wunderground v.1.15,2013-03-30 19:41:00,
2013-03-30 15:47:00,63.7,37.6,30.11,NW,314,4.0,6.0,38,0.00,,,0.00,Wunderground v.1.15,2013-03-30 19:47:00,
2013-03-30 15:52:00,64.0,38.5,30.10,South,186,2.0,6.0,39,0.00,,,0.00,Wunderground v.1.15,2013-03-30 19:52:00,
2013-03-30 15:58:00,65.3,37.6,30.11,SW,224,5.0,8.0,36,0.00,,,0.00,Wunderground v.1.15,2013-03-30 19:58:00,
2013-03-30 16:03:00,65.2,38.3,30.10,SSE,150,5.0,6.0,37,0.00,,,0.00,Wunderground v.1.15,2013-03-30 20:03:00,
2013-03-30 16:09:00,65.3,39.7,30.10,SSW,213,5.0,13.0,39,0.00,,,0.00,Wunderground v.1.15,2013-03-30 20:09:00,
2013-03-30 16:15:00,65.9,37.5,30.10,West,271,6.0,6.0,35,0.00,,,0.00,Wunderground v.1.15,2013-03-30 20:15:00,
2013-03-30 16:21:00,66.1,39.1,30.10,SW,229,6.0,12.0,37,0.00,,,0.00,Wunderground v.1.15,2013-03-30 20:21:00,
2013-03-30 16:26:00,65.4,38.4,30.10,West,275,8.0,12.0,37,0.00,,,0.00,Wunderground v.1.15,2013-03-30 20:26:00,
2013-03-30 16:31:00,64.7,39.2,30.10,SW,215,8.0,8.0,39,0.00,,,0.00,Wunderground v.1.15,2013-03-30 20:31:00,
2013-03-30 16:37:00,64.1,38.6,30.09,West,259,6.0,8.0,39,0.00,,,0.00,Wunderground v.1.15,2013-03-30 20:37:00,
2013-03-30 16:42:00,64.9,38.7,30.09,WNW,297,5.0,7.0,38,0.00,,,0.00,Wunderground v.1.15,2013-03-30 20:42:00,
2013-03-30 16:48:00,65.3,36.2,30.09,NW,323,4.0,7.0,34,0.00,,,0.00,Wunderground v.1.15,2013-03-30 20:48:00,
2013-03-30 16:53:00,65.1,38.2,30.08,West,274,3.0,5.0,37,0.00,,,0.00,Wunderground v.1.15,2013-03-30 20:53:00,
2013-03-30 16:58:00,65.3,37.6,30.08,NNE,16,2.0,5.0,36,0.00,,,0.00,Wunderground v.1.15,2013-03-30 20:58:00,
2013-03-30 17:03:00,65.3,39.0,30.09,SW,220,2.0,6.0,38,0.00,,,0.00,Wunderground v.1.15,2013-03-30 21:03:00,
2013-03-30 17:09:00,65.0,38.8,30.09,South,176,5.0,8.0,38,0.00,,,0.00,Wunderground v.1.15,2013-03-30 21:09:00,
2013-03-30 17:15:00,65.0,38.8,30.08,SW,224,5.0,7.0,38,0.00,,,0.00,Wunderground v.1.15,2013-03-30 21:15:00,
2013-03-30 17:21:00,65.5,39.2,30.08,South,185,4.0,8.0,38,0.00,,,0.00,Wunderground v.1.15,2013-03-30 21:21:00,
2013-03-30 17:26:00,65.2,38.9,30.08,WSW,238,6.0,8.0,38,0.00,,,0.00,Wunderground v.1.15,2013-03-30 21:26:00,
2013-03-30 17:32:00,65.2,38.9,30.08,SW,218,7.0,10.0,38,0.00,,,0.00,Wunderground v.1.15,2013-03-30 21:32:00,
2013-03-30 17:38:00,64.9,38.7,30.08,SSW,205,8.0,10.0,38,0.00,,,0.00,Wunderground v.1.15,2013-03-30 21:38:00,
2013-03-30 17:43:00,65.0,38.8,30.08,SW,229,7.0,8.0,38,0.00,,,0.00,Wunderground v.1.15,2013-03-30 21:43:00,
2013-03-30 17:49:00,64.7,38.5,30.08,West,259,5.0,8.0,38,0.00,,,0.00,Wunderground v.1.15,2013-03-30 21:49:00,
2013-03-30 17:55:00,64.3,38.1,30.08,WSW,244,4.0,6.0,38,0.00,,,0.00,Wunderground v.1.15,2013-03-30 21:55:00,
2013-03-30 18:00:00,64.0,38.5,30.08,WSW,240,4.0,4.0,39,0.00,,,0.00,Wunderground v.1.15,2013-03-30 22:00:00,
2013-03-30 18:06:00,64.4,40.8,30.08,SSW,201,5.0,5.0,42,0.00,,,0.00,Wunderground v.1.15,2013-03-30 22:06:00,
2013-03-30 18:12:00,64.5,39.0,30.08,SSW,194,4.0,4.0,39,0.00,,,0.00,Wunderground v.1.15,2013-03-30 22:12:00,
2013-03-30 18:18:00,64.3,39.4,30.09,SSE,158,3.0,5.0,40,0.00,,,0.00,Wunderground v.1.15,2013-03-30 22:18:00,
2013-03-30 18:23:00,63.8,39.6,30.08,SSE,163,3.0,5.0,41,0.00,,,0.00,Wunderground v.1.15,2013-03-30 22:23:00,
2013-03-30 18:28:00,63.4,39.3,30.09,SSE,163,2.0,5.0,41,0.00,,,0.00,Wunderground v.1.15,2013-03-30 22:28:00,
2013-03-30 18:34:00,63.0,40.1,30.09,South,180,2.0,4.0,43,0.00,,,0.00,Wunderground v.1.15,2013-03-30 22:34:00,
2013-03-30 18:39:00,62.5,39.7,30.09,South,180,2.0,4.0,43,0.00,,,0.00,Wunderground v.1.15,2013-03-30 22:39:00,
2013-03-30 18:44:00,62.3,39.5,30.09,SSE,159,2.0,4.0,43,0.00,,,0.00,Wunderground v.1.15,2013-03-30 22:44:00,
2013-03-30 18:49:00,62.2,39.4,30.09,SSE,162,3.0,4.0,43,0.00,,,0.00,Wunderground v.1.15,2013-03-30 22:49:00,
2013-03-30 18:55:00,61.9,40.3,30.09,SSE,167,2.0,2.0,45,0.00,,,0.00,Wunderground v.1.15,2013-03-30 22:55:00,
2013-03-30 19:00:00,61.7,40.1,30.09,SSE,167,2.0,2.0,45,0.00,,,0.00,Wunderground v.1.15,2013-03-30 23:00:00,
2013-03-30 19:06:00,61.5,39.9,30.09,SSE,167,1.0,2.0,45,0.00,,,0.00,Wunderground v.1.15,2013-03-30 23:06:00,
2013-03-30 19:11:00,61.4,40.4,30.09,SSE,167,0.0,0.0,46,0.00,,,0.00,Wunderground v.1.15,2013-03-30 23:11:00,
2013-03-30 19:16:00,61.2,39.7,30.09,SSE,167,0.0,0.0,45,0.00,,,0.00,Wunderground v.1.15,2013-03-30 23:16:00,
2013-03-30 19:21:00,61.1,40.1,30.09,SSE,167,0.0,0.0,46,0.00,,,0.00,Wunderground v.1.15,2013-03-30 23:21:00,
2013-03-30 19:26:00,60.9,40.5,30.09,SSE,167,0.0,0.0,47,0.00,,,0.00,Wunderground v.1.15,2013-03-30 23:26:00,
2013-03-30 19:31:00,60.6,40.2,30.09,SSE,167,0.0,0.0,47,0.00,,,0.00,Wunderground v.1.15,2013-03-30 23:31:00,
2013-03-30 19:36:00,60.3,40.0,30.09,SSE,167,0.0,0.0,47,0.00,,,0.00,Wunderground v.1.15,2013-03-30 23:36:00,
2013-03-30 19:42:00,59.9,40.1,30.09,SSE,167,0.0,0.0,48,0.00,,,0.00,Wunderground v.1.15,2013-03-30 23:42:00,
2013-03-30 19:48:00,59.5,39.8,30.09,SSE,167,0.0,0.0,48,0.00,,,0.00,Wunderground v.1.15,2013-03-30 23:48:00,
2013-03-30 19:54:00,59.1,39.9,30.09,SSE,167,0.0,0.0,49,0.00,,,0.00,Wunderground v.1.15,2013-03-30 23:54:00,
2013-03-30 20:00:00,58.8,40.7,30.10,SSE,167,0.0,0.0,51,0.00,,,0.00,Wunderground v.1.15,2013-03-31 00:00:00,
2013-03-30 20:06:00,58.4,40.3,30.10,SSE,167,0.0,0.0,51,0.00,,,0.00,Wunderground v.1.15,2013-03-31 00:06:00,
2013-03-30 20:12:00,58.0,40.5,30.10,SSE,167,0.0,0.0,52,0.00,,,0.00,Wunderground v.1.15,2013-03-31 00:12:00,
2013-03-30 20:18:00,57.7,40.2,30.10,SSE,167,0.0,0.0,52,0.00,,,0.00,Wunderground v.1.15,2013-03-31 00:18:00,
2013-03-30 20:23:00,57.5,40.5,30.10,SSE,167,0.0,0.0,53,0.00,,,0.00,Wunderground v.1.15,2013-03-31 00:23:00,
2013-03-30 20:29:00,57.2,40.7,30.10,SSE,167,0.0,0.0,54,0.00,,,0.00,Wunderground v.1.15,2013-03-31 00:29:00,
2013-03-30 20:35:00,56.8,40.8,30.10,SSE,167,0.0,0.0,55,0.00,,,0.00,Wunderground v.1.15,2013-03-31 00:35:00,
2013-03-30 20:40:00,56.6,40.6,30.10,SSE,167,0.0,0.0,55,0.00,,,0.00,Wunderground v.1.15,2013-03-31 00:40:00,
2013-03-30 20:45:00,56.5,40.5,30.10,SSE,167,0.0,0.0,55,0.00,,,0.00,Wunderground v.1.15,2013-03-31 00:45:00,
2013-03-30 20:51:00,56.3,40.8,30.10,SSE,167,0.0,0.0,56,0.00,,,0.00,Wunderground v.1.15,2013-03-31 00:51:00,
2013-03-30 20:57:00,56.1,41.1,30.10,SSE,167,0.0,0.0,57,0.00,,,0.00,Wunderground v.1.15,2013-03-31 00:57:00,
2013-03-30 21:02:00,55.9,40.9,30.11,SSE,167,0.0,0.0,57,0.00,,,0.00,Wunderground v.1.15,2013-03-31 01:02:00,
2013-03-30 21:08:00,55.7,40.7,30.10,SSE,167,0.0,0.0,57,0.00,,,0.00,Wunderground v.1.15,2013-03-31 01:08:00,
2013-03-30 21:13:00,55.5,41.0,30.10,SSE,167,0.0,0.0,58,0.00,,,0.00,Wunderground v.1.15,2013-03-31 01:13:00,
2013-03-30 21:19:00,55.2,41.1,30.10,SSE,167,0.0,0.0,59,0.00,,,0.00,Wunderground v.1.15,2013-03-31 01:19:00,
2013-03-30 21:25:00,54.9,41.3,30.10,SSE,167,0.0,0.0,60,0.00,,,0.00,Wunderground v.1.15,2013-03-31 01:25:00,
2013-03-30 21:31:00,54.7,41.1,30.11,SSE,167,0.0,0.0,60,0.00,,,0.00,Wunderground v.1.15,2013-03-31 01:31:00,
2013-03-30 21:36:00,54.6,41.0,30.11,SSE,167,0.0,0.0,60,0.00,,,0.00,Wunderground v.1.15,2013-03-31 01:36:00,
2013-03-30 21:41:00,54.5,41.3,30.10,SSE,167,0.0,0.0,61,0.00,,,0.00,Wunderground v.1.15,2013-03-31 01:41:00,
2013-03-30 21:46:00,54.4,41.6,30.10,SSE,167,0.0,0.0,62,0.00,,,0.00,Wunderground v.1.15,2013-03-31 01:46:00,
2013-03-30 21:52:00,54.2,41.9,30.10,SSE,167,0.0,0.0,63,0.00,,,0.00,Wunderground v.1.15,2013-03-31 01:52:00,
2013-03-30 21:57:00,54.2,42.3,30.10,SSE,167,0.0,4.0,64,0.00,,,0.00,Wunderground v.1.15,2013-03-31 01:57:00,
2013-03-30 22:02:00,53.9,42.4,30.11,SSE,167,1.0,1.0,65,0.00,,,0.00,Wunderground v.1.15,2013-03-31 02:02:00,
2013-03-30 22:07:00,53.7,43.0,30.11,SSE,167,1.0,1.0,67,0.00,,,0.00,Wunderground v.1.15,2013-03-31 02:07:00,
2013-03-30 22:13:00,53.5,42.4,30.10,SSE,167,0.0,1.0,66,0.00,,,0.00,Wunderground v.1.15,2013-03-31 02:13:00,
2013-03-30 22:19:00,53.6,42.5,30.10,SSE,167,0.0,4.0,66,0.00,,,0.00,Wunderground v.1.15,2013-03-31 02:19:00,
2013-03-30 22:25:00,53.9,43.2,30.10,SSE,167,0.0,1.0,67,0.00,,,0.00,Wunderground v.1.15,2013-03-31 02:25:00,
2013-03-30 22:30:00,53.9,43.2,30.10,SSE,167,0.0,1.0,67,0.00,,,0.00,Wunderground v.1.15,2013-03-31 02:30:00,
2013-03-30 22:36:00,54.0,43.3,30.10,SSE,167,1.0,2.0,67,0.00,,,0.00,Wunderground v.1.15,2013-03-31 02:36:00,
2013-03-30 22:41:00,54.0,43.7,30.10,SSE,167,1.0,4.0,68,0.00,,,0.00,Wunderground v.1.15,2013-03-31 02:41:00,
2013-03-30 22:46:00,54.1,43.8,30.10,SSE,167,1.0,4.0,68,0.00,,,0.00,Wunderground v.1.15,2013-03-31 02:46:00,
2013-03-30 22:52:00,53.9,43.6,30.10,SSE,167,1.0,1.0,68,0.00,,,0.00,Wunderground v.1.15,2013-03-31 02:52:00,
2013-03-30 22:58:00,53.7,43.8,30.10,SSE,167,0.0,1.0,69,0.00,,,0.00,Wunderground v.1.15,2013-03-31 02:58:00,
2013-03-30 23:04:00,53.4,43.5,30.10,SSE,167,0.0,0.0,69,0.00,,,0.00,Wunderground v.1.15,2013-03-31 03:04:00,
2013-03-30 23:10:00,53.2,43.7,30.10,SSE,167,0.0,1.0,70,0.00,,,0.00,Wunderground v.1.15,2013-03-31 03:10:00,
2013-03-30 23:16:00,52.9,43.4,30.10,SSE,167,0.0,1.0,70,0.00,,,0.00,Wunderground v.1.15,2013-03-31 03:16:00,
2013-03-30 23:21:00,52.8,43.7,30.10,SSE,167,0.0,0.0,71,0.00,,,0.00,Wunderground v.1.15,2013-03-31 03:21:00,
2013-03-30 23:26:00,52.8,43.7,30.10,SSE,167,0.0,1.0,71,0.00,,,0.00,Wunderground v.1.15,2013-03-31 03:26:00,
2013-03-30 23:32:00,52.7,43.9,30.10,SSE,167,0.0,0.0,72,0.00,,,0.00,Wunderground v.1.15,2013-03-31 03:32:00,
2013-03-30 23:37:00,52.7,43.9,30.10,SSE,167,0.0,0.0,72,0.00,,,0.00,Wunderground v.1.15,2013-03-31 03:37:00,
2013-03-30 23:43:00,52.7,44.3,30.10,SSE,167,1.0,4.0,73,0.00,,,0.00,Wunderground v.1.15,2013-03-31 03:43:00,
2013-03-30 23:48:00,52.7,44.3,30.10,South,169,2.0,4.0,73,0.00,,,0.00,Wunderground v.1.15,2013-03-31 03:48:00,
2013-03-30 23:54:00,52.6,44.2,30.10,South,169,1.0,2.0,73,0.00,,,0.00,Wunderground v.1.15,2013-03-31 03:54:00,